Date String (YYYY-MM-DD hh:mm:ss) UTC,Instrument flags,Ambient pressure (hPa),Sample flow (lpm),Bypass flow (lpm),Sample temperature (°C),Ambient temperature (°C),ASC tube jacket temperature (°C),LED temperature (°C),Box temperature (°C),Sample RH (%),Span deviation,Mass concentration (μg/m³),Mass concentration (μg/m³),Mass concentration (μg/m³)
DateTimeUTC,F1_M11,P_M11,Q1_M11,Q2_M11,T1_M11,T2_M11,T3_M11,T4_M11,T5_M11,U1_M11,ZSPAN_M11,X2_M11,X0_M11,X1_M11
2022-11-09 05:00:00,,0819.9,4.99,0.00,27.9,26.3,00.0,36.8,29.7,06.8,0000.0,0001.23,0003.40,0000.98
2022-11-09 05:01:00,,0819.9,5.00,0.00,27.9,26.3,00.0,36.8,29.7,06.8,0000.0,0001.22,0003.39,0000.98
2022-11-09 05:02:00,,0819.9,4.99,0.00,27.9,26.3,00.0,36.8,29.7,06.8,0000.0,0001.24,0003.44,0000.98
2022-11-09 05:03:00,,0819.9,5.00,0.00,27.9,26.3,00.0,36.7,29.7,06.9,0000.0,0001.23,0003.30,0000.98
2022-11-09 05:04:00,,0819.9,5.00,0.00,27.9,26.3,00.0,36.8,29.7,06.9,0000.0,0001.22,0003.46,0000.98
2022-11-09 05:05:00,,0820.0,5.00,0.00,27.9,26.3,00.0,36.8,29.7,06.9,0000.0,0001.23,0003.50,0000.99
2022-11-09 05:06:00,,0819.9,5.00,0.00,27.9,26.3,00.0,36.7,29.7,07.0,0000.0,0001.22,0003.35,0000.98
2022-11-09 05:07:00,,0820.0,5.00,0.00,27.9,26.3,00.0,36.7,29.7,06.9,0000.0,0001.22,0003.35,0000.98
2022-11-09 05:08:00,,0819.9,5.00,0.00,27.9,26.3,00.0,36.7,29.7,06.9,0000.0,0001.22,0003.33,0000.97
2022-11-09 05:09:00,,0820.0,5.01,0.00,27.9,26.3,00.0,36.7,29.7,07.0,0000.0,0001.25,0002.82,0000.97
2022-11-09 05:10:00,,0820.0,5.00,0.00,27.9,26.3,00.0,36.7,29.7,07.0,0000.0,0001.26,0002.17,0000.96
2022-11-09 05:11:00,,0820.0,5.01,0.00,27.9,26.3,00.0,36.7,29.7,06.9,0000.0,0001.31,0002.32,0000.98
2022-11-09 05:12:00,,0819.9,5.00,0.00,27.9,26.3,00.0,36.7,29.7,06.9,0000.0,0001.34,0002.40,0000.98
2022-11-09 05:13:00,,0820.0,5.00,0.00,27.9,26.3,00.0,36.7,29.7,06.8,0000.0,0001.37,0002.42,0000.98
2022-11-09 05:14:00,,0819.9,5.00,0.00,27.9,26.3,00.0,36.7,29.7,06.8,0000.0,0001.35,0002.25,0001.00
2022-11-09 05:15:00,,0820.0,4.98,0.00,27.9,26.4,00.0,36.7,29.7,06.8,0000.0,0001.36,0002.09,0001.00
2022-11-09 05:16:00,,0819.9,4.99,0.00,27.9,26.3,00.0,36.7,29.7,06.8,0000.0,0001.37,0002.04,0001.00
2022-11-09 05:17:00,,0819.9,5.01,0.00,27.9,26.3,00.0,36.7,29.7,06.8,0000.0,0001.39,0002.08,0001.02
2022-11-09 05:18:00,,0819.9,5.02,0.00,27.9,26.3,00.0,36.7,29.7,06.9,0000.0,0001.43,0002.21,0001.02
2022-11-09 05:19:00,,0819.9,4.99,0.00,27.9,26.3,00.0,36.7,29.7,07.0,0000.0,0001.43,0002.43,0001.02
2022-11-09 05:20:00,,0820.0,4.99,0.00,27.9,26.3,00.0,36.7,29.7,07.1,0000.0,0001.41,0002.76,0001.02
2022-11-09 05:21:00,,0819.9,5.00,0.00,27.9,26.3,00.0,36.7,29.7,06.9,0000.0,0001.38,0002.74,0001.02
2022-11-09 05:22:00,,0819.9,5.02,0.00,27.9,26.3,00.0,36.7,29.7,06.8,0000.0,0001.38,0002.90,0001.02
2022-11-09 05:23:00,,0819.9,5.00,0.00,27.8,26.3,00.0,36.7,29.7,06.8,0000.0,0001.39,0002.90,0001.04
2022-11-09 05:24:00,,0819.9,5.00,0.00,27.9,26.3,00.0,36.7,29.7,06.8,0000.0,0001.39,0002.95,0001.05
2022-11-09 05:25:00,,0819.9,5.00,0.00,27.9,26.3,00.0,36.7,29.7,06.8,0000.0,0001.38,0003.00,0001.05
2022-11-09 05:26:00,,0819.9,4.99,0.00,27.9,26.3,00.0,36.7,29.7,06.8,0000.0,0001.38,0003.07,0001.04
2022-11-09 05:27:00,,0819.9,5.00,0.00,27.9,26.3,00.0,36.7,29.7,06.9,0000.0,0001.39,0003.19,0001.04
2022-11-09 05:28:00,,0819.9,5.01,0.00,27.9,26.3,00.0,36.7,29.7,07.1,0000.0,0001.36,0003.18,0001.04
2022-11-09 05:29:00,,0819.9,5.01,0.00,27.9,26.3,00.0,36.7,29.7,07.0,0000.0,0001.31,0003.02,0001.04
2022-11-09 05:30:00,,0819.9,5.01,0.00,27.8,26.3,00.0,36.7,29.7,07.0,0000.0,0001.32,0002.81,0001.05
2022-11-09 05:31:00,,0819.9,5.00,0.00,27.8,26.3,00.0,36.7,29.7,07.0,0000.0,0001.32,0003.18,0001.05
2022-11-09 05:32:00,,0819.8,5.00,0.00,27.8,26.3,00.0,36.7,29.7,07.1,0000.0,0001.34,0003.31,0001.05
2022-11-09 05:33:00,,0819.8,5.00,0.00,27.8,26.3,00.0,36.7,29.7,07.4,0000.0,0001.38,0003.29,0001.06
2022-11-09 05:34:00,,0819.9,5.00,0.00,27.9,26.3,00.0,36.7,29.7,07.3,0000.0,0001.42,0003.40,0001.07
2022-11-09 05:35:00,,0819.9,5.00,0.00,27.8,26.3,00.0,36.7,29.7,07.2,0000.0,0001.42,0003.36,0001.07
2022-11-09 05:36:00,,0819.9,5.00,0.00,27.9,26.3,00.0,36.7,29.7,07.1,0000.0,0001.43,0003.41,0001.07
2022-11-09 05:37:00,,0819.9,5.00,0.00,27.9,26.3,00.0,36.7,29.7,07.2,0000.0,0001.43,0003.36,0001.08
2022-11-09 05:38:00,,0819.9,5.00,0.00,27.9,26.3,00.0,36.7,29.7,07.1,0000.0,0001.46,0003.29,0001.10
2022-11-09 05:39:00,,0819.8,4.99,0.00,27.9,26.3,00.0,36.7,29.7,07.1,0000.0,0001.47,0003.26,0001.10
2022-11-09 05:40:00,,0819.8,5.00,0.00,27.8,26.3,00.0,36.7,29.6,07.2,0000.0,0001.51,0003.46,0001.11
2022-11-09 05:41:00,,0819.9,5.01,0.00,27.8,26.2,00.0,36.7,29.6,07.1,0000.0,0001.50,0003.53,0001.10
2022-11-09 05:42:00,,0819.8,5.01,0.00,27.8,26.2,00.0,36.7,29.7,07.4,0000.0,0001.48,0002.76,0001.10
2022-11-09 05:43:00,,0819.9,5.00,0.00,27.8,26.3,00.0,36.7,29.6,07.5,0000.0,0001.48,0002.59,0001.11
2022-11-09 05:44:00,,0819.9,4.99,0.00,27.8,26.2,00.0,36.7,29.6,07.4,0000.0,0001.42,0002.36,0001.11
2022-11-09 05:45:00,,0820.0,5.00,0.00,27.8,26.2,00.0,36.7,29.6,07.3,0000.0,0001.35,0002.18,0001.10
2022-11-09 05:46:00,,0819.9,5.00,0.00,27.8,26.2,00.0,36.6,29.6,07.2,0000.0,0001.35,0002.23,0001.09
2022-11-09 05:47:00,,0819.9,5.01,0.00,27.8,26.2,00.0,36.7,29.6,07.0,0000.0,0001.35,0002.17,0001.07
2022-11-09 05:48:00,,0820.0,5.00,0.00,27.8,26.2,00.0,36.7,29.6,07.1,0000.0,0001.32,0002.15,0001.06
2022-11-09 05:49:00,,0819.9,4.99,0.00,27.8,26.1,00.0,36.6,29.6,07.1,0000.0,0001.26,0002.13,0001.03
2022-11-09 05:50:00,,0819.9,4.98,0.00,27.8,26.1,00.0,36.6,29.5,07.1,0000.0,0001.27,0002.15,0001.04
2022-11-09 05:51:00,,0819.9,5.00,0.00,27.8,26.1,00.0,36.6,29.5,07.1,0000.0,0001.30,0002.10,0001.03
2022-11-09 05:52:00,,0819.9,5.01,0.00,27.7,26.1,00.0,36.6,29.5,07.0,0000.0,0001.30,0002.00,0001.02
2022-11-09 05:53:00,,0819.8,5.01,0.00,27.7,26.1,00.0,36.6,29.5,07.0,0000.0,0001.31,0002.02,0001.02
2022-11-09 05:54:00,,0819.9,5.00,0.00,27.7,26.0,00.0,36.6,29.5,07.0,0000.0,0001.29,0001.99,0001.00
2022-11-09 05:55:00,,0819.9,5.00,0.00,27.7,26.0,00.0,36.6,29.5,07.0,0000.0,0001.27,0001.96,0000.99
2022-11-09 05:56:00,,0819.9,4.99,0.00,27.7,26.0,00.0,36.6,29.5,07.0,0000.0,0001.29,0001.99,0000.98
2022-11-09 05:57:00,,0819.8,4.99,0.00,27.7,26.0,00.0,36.6,29.5,07.1,0000.0,0001.28,0001.97,0000.98
2022-11-09 05:58:00,,0819.8,5.00,0.00,27.7,26.0,00.0,36.6,29.5,07.0,0000.0,0001.28,0001.93,0000.99
2022-11-09 05:59:00,,0819.9,5.00,0.00,27.7,26.0,00.0,36.6,29.5,07.0,0000.0,0001.28,0001.92,0000.98
